Location: Austin
(30.3000°N, 97.7500°W)
Time: 10:34:56
(UTC-05:00)

Lacrosse 5 - Pass Details

Date: 03 April 2024
Orbit: 714 x 724 km, 57.0° (Epoch: 09 March)

Event Time Altitude Azimuth Distance (km) Brightness Sun altitude
Exits shadow 04:29:23 28° 80° (E) 1,338 3.7 -34.8°
Drops below altitude 10° 04:32:16 10° 55° (NE) 2,212 5.2 -34.3°
Sets 04:34:48 0° 47° (NE) 3,136 6.2 -33.8°
